Marion, IN

9:18 AM EST on January 18, 2017 (GMT -0500)
Marion Municipal

Weather History for KMZZ - April, 2013

Change the Weather History Date:

Monday, April 15, 2013

  Actual Average (KMIE) Record (KMIE)
Temperature  
Mean Temperature 58 °F -  
Max Temperature 65 °F 62 °F 82 °F (1976)
Min Temperature 50 °F 41 °F 25 °F (2014)
Degree Days  
Heating Degree Days 8    
Growing Degree Days 8 (Base 50)    
Moisture  
Dew Point 48 °F    
Average Humidity 69    
Maximum Humidity 79    
Minimum Humidity 57    
Precipitation  
Precipitation 0.01 in - - ()
Sea Level Pressure  
Sea Level Pressure 29.91 in    
Wind  
Wind Speed 11 mph (South)    
Max Wind Speed 17 mph    
Max Gust Speed 22 mph    
Visibility 10 miles    
Events      
Averages and records for this station are not official NWS values.
T = Trace of Precipitation, MM = Missing Value Source: NWS Daily Summary

Daily Weather History Graph

Daily Weather History Graph

Search for Another Location

Airport or City:

Trip Planner

Search our weather history database for the weather conditions in past years. The results will help you decide how hot, cold, wet, or windy it might be!

Date:

Astronomy

Apr. 15, 2013 Rise Set
Actual Time 7:03 AM EDT 8:22 PM EDT
Civil Twilight 6:35 AM EDT 8:50 PM EDT
Nautical Twilight 6:01 AM EDT 9:24 PM EDT
Astronomical Twilight 5:26 AM EDT 10:00 PM EDT
Moon 10:28 AM EDT (4/15) 12:34 AM EDT (4/15)
Length of Visible Light 14h 14m
Length of Day
13h 18m
Waxing Crescent, 24% of the Moon is Illuminated
Apr 15
Waxing Crescent
Apr 18
First Quarter
Apr 25
Full
May 2
Last Quarter
May 9
New

Hourly Weather History & Observations

Time (EDT) Temp. Dew Point Humidity Pressure Visibility Wind Dir Wind Speed Gust Speed Precip Events Conditions
12:15 AM 56.3 °F 42.3 °F 59% 29.84 in 10.0 mi SSE 11.5 mph - N/A   Clear
12:35 AM 56.3 °F 41.9 °F 59% 29.84 in 10.0 mi SSE 10.4 mph - N/A   Clear
12:55 AM 56.3 °F 41.9 °F 59% 29.84 in 10.0 mi South 12.7 mph - N/A   Clear
1:15 AM 56.5 °F 41.9 °F 58% 29.85 in 10.0 mi South 12.7 mph - N/A   Clear
1:35 AM 57.4 °F 42.1 °F 57% 29.85 in 10.0 mi South 10.4 mph - N/A   Clear
1:55 AM 57.4 °F 42.4 °F 57% 29.85 in 10.0 mi South 11.5 mph - N/A   Clear
2:15 AM 56.8 °F 42.4 °F 59% 29.85 in 10.0 mi South 11.5 mph 18.4 mph N/A   Clear
2:35 AM 55.9 °F 42.8 °F 61% 29.84 in 10.0 mi South 10.4 mph - N/A   Clear
2:55 AM 55.0 °F 42.8 °F 63% 29.84 in 10.0 mi South 12.7 mph - N/A   Clear
3:15 AM 55.2 °F 42.8 °F 63% 29.86 in 10.0 mi South 10.4 mph - N/A   Clear
3:35 AM 54.9 °F 42.8 °F 64% 29.87 in 10.0 mi SSW 10.4 mph - N/A   Clear
3:55 AM 54.3 °F 43.2 °F 66% 29.89 in 10.0 mi SSW 12.7 mph - N/A   Clear
4:15 AM 53.8 °F 43.3 °F 68% 29.90 in 10.0 mi SSW 12.7 mph - N/A   Clear
4:35 AM 52.5 °F 43.3 °F 71% 29.90 in 10.0 mi SSW 9.2 mph - N/A   Clear
4:55 AM 51.8 °F 43.7 °F 74% 29.91 in 10.0 mi SSW 8.1 mph - N/A   Clear
5:15 AM 52.5 °F 43.7 °F 72% 29.91 in 10.0 mi South 8.1 mph - N/A   Clear
5:35 AM 52.5 °F 43.7 °F 72% 29.91 in 10.0 mi South 9.2 mph - N/A   Clear
5:55 AM 51.6 °F 43.7 °F 74% 29.90 in 10.0 mi South 8.1 mph - N/A   Clear
6:15 AM 50.9 °F 43.7 °F 76% 29.90 in 10.0 mi South 8.1 mph - N/A   Clear
6:35 AM 51.1 °F 44.1 °F 77% 29.90 in 10.0 mi South 8.1 mph - N/A   Clear
6:55 AM 51.4 °F 44.4 °F 77% 29.89 in 10.0 mi SSE 10.4 mph - N/A   Clear
7:15 AM 52.0 °F 44.6 °F 76% 29.89 in 10.0 mi SSE 11.5 mph - N/A   Clear
7:35 AM 51.4 °F 44.6 °F 77% 29.91 in 10.0 mi SSE 9.2 mph - N/A   Clear
7:55 AM 51.3 °F 44.6 °F 78% 29.91 in 10.0 mi SSE 8.1 mph - N/A   Clear
8:15 AM 52.0 °F 45.1 °F 77% 29.93 in 10.0 mi South 10.4 mph - N/A   Scattered Clouds
8:35 AM 53.2 °F 46.0 °F 77% 29.93 in 10.0 mi South 10.4 mph - N/A   Scattered Clouds
8:55 AM 54.3 °F 46.6 °F 75% 29.94 in 10.0 mi SSW 9.2 mph - N/A   Overcast
9:15 AM 55.4 °F 46.8 °F 73% 29.94 in 10.0 mi South 11.5 mph - N/A   Overcast
9:35 AM 56.5 °F 47.3 °F 71% 29.94 in 10.0 mi South 13.8 mph - N/A   Overcast
9:55 AM 57.4 °F 47.7 °F 70% 29.94 in 7.0 mi South 13.8 mph 19.6 mph N/A   Overcast
10:15 AM 57.6 °F 47.5 °F 69% 29.94 in 10.0 mi South 11.5 mph 20.7 mph N/A   Overcast
10:35 AM 57.6 °F 47.8 °F 70% 29.95 in 10.0 mi South 12.7 mph 17.3 mph N/A   Overcast
10:55 AM 58.1 °F 48.6 °F 71% 29.95 in 10.0 mi South 11.5 mph - N/A   Overcast
11:15 AM 58.5 °F 49.1 °F 71% 29.94 in 10.0 mi South 11.5 mph - N/A   Overcast
11:35 AM 59.2 °F 49.5 °F 70% 29.95 in 10.0 mi South 11.5 mph - N/A   Overcast
11:55 AM 59.7 °F 49.6 °F 69% 29.95 in 10.0 mi SSW 12.7 mph - N/A   Overcast
12:15 PM 59.5 °F 49.6 °F 70% 29.96 in 10.0 mi SSW 11.5 mph - N/A   Overcast
12:35 PM 59.5 °F 50.2 °F 71% 29.96 in 10.0 mi SSW 15.0 mph - N/A   Overcast
12:55 PM 60.3 °F 50.4 °F 70% 29.96 in 10.0 mi SSW 13.8 mph - N/A   Overcast
1:15 PM 60.8 °F 50.5 °F 69% 29.95 in 10.0 mi South 16.1 mph 19.6 mph N/A   Overcast
1:35 PM 61.2 °F 50.5 °F 68% 29.95 in 10.0 mi South 13.8 mph - N/A   Overcast
1:55 PM 61.5 °F 50.7 °F 68% 29.94 in 10.0 mi SSW 13.8 mph - 0.01 in   Overcast
2:15 PM 61.9 °F 51.1 °F 68% 29.95 in 10.0 mi SSW 15.0 mph 20.7 mph N/A   Overcast
2:35 PM 62.4 °F 51.3 °F 67% 29.94 in 10.0 mi SSW 12.7 mph - N/A   Overcast
2:55 PM 62.6 °F 51.4 °F 67% 29.92 in 10.0 mi South 12.7 mph 17.3 mph N/A   Scattered Clouds
3:15 PM 62.1 °F 51.3 °F 68% 29.93 in 10.0 mi South 11.5 mph - N/A   Mostly Cloudy
3:35 PM 62.4 °F 51.6 °F 68% 29.92 in 10.0 mi South 12.7 mph - N/A   Overcast
3:55 PM 63.3 °F 51.6 °F 66% 29.92 in 7.0 mi South 11.5 mph 19.6 mph N/A   Overcast
4:15 PM 63.7 °F 51.8 °F 65% 29.93 in 10.0 mi SSW 17.3 mph - N/A   Overcast
4:35 PM 63.7 °F 51.6 °F 65% 29.94 in 10.0 mi SSW 16.1 mph - N/A   Overcast
4:55 PM 62.6 °F 52.5 °F 70% 29.92 in 7.0 mi SSW 16.1 mph 21.9 mph N/A   Mostly Cloudy
5:15 PM 61.3 °F 52.9 °F 74% 29.88 in 10.0 mi South 15.0 mph - N/A   Overcast
5:35 PM 61.0 °F 52.9 °F 75% 29.90 in 10.0 mi South 11.5 mph - N/A   Overcast
5:55 PM 61.5 °F 53.1 °F 74% 29.88 in 10.0 mi SSE 8.1 mph - N/A   Mostly Cloudy
6:15 PM 62.2 °F 53.1 °F 72% 29.89 in 10.0 mi South 11.5 mph - N/A   Scattered Clouds
6:35 PM 64.2 °F 53.6 °F 68% 29.88 in 10.0 mi South 15.0 mph - N/A   Clear
6:55 PM 65.3 °F 53.4 °F 65% 29.89 in 10.0 mi SSW 11.5 mph - N/A   Scattered Clouds
7:15 PM 64.8 °F 53.6 °F 67% 29.90 in 10.0 mi SSW 10.4 mph - N/A   Scattered Clouds
7:35 PM 64.2 °F 53.6 °F 68% 29.90 in 10.0 mi SSW 9.2 mph - N/A   Scattered Clouds
7:55 PM 64.0 °F 53.4 °F 68% 29.89 in 10.0 mi South 6.9 mph - N/A   Scattered Clouds
8:15 PM 63.5 °F 52.9 °F 68% 29.90 in 7.0 mi South 5.8 mph - N/A   Scattered Clouds
8:35 PM 62.1 °F 52.5 °F 71% 29.91 in 10.0 mi SSW 4.6 mph - N/A   Scattered Clouds
8:55 PM 60.1 °F 52.2 °F 75% 29.91 in 10.0 mi South 3.5 mph - N/A   Scattered Clouds
9:15 PM 60.1 °F 52.0 °F 75% 29.91 in 10.0 mi South 4.6 mph - N/A   Mostly Cloudy
9:35 PM 59.9 °F 52.2 °F 76% 29.92 in 10.0 mi SSE 4.6 mph - N/A   Overcast
9:55 PM 58.6 °F 52.0 °F 79% 29.91 in 10.0 mi SSE 8.1 mph - N/A   Mostly Cloudy
10:15 PM 60.6 °F 51.8 °F 73% 29.93 in 7.0 mi South 9.2 mph - N/A   Scattered Clouds
10:35 PM 61.0 °F 51.4 °F 71% 29.94 in 10.0 mi South 11.5 mph - N/A   Scattered Clouds
10:55 PM 61.0 °F 51.3 °F 70% 29.94 in 10.0 mi South 10.4 mph - N/A   Mostly Cloudy
11:15 PM 61.2 °F 51.3 °F 70% 29.94 in 10.0 mi South 13.8 mph 17.3 mph N/A   Overcast
11:35 PM 60.8 °F 51.3 °F 71% 29.92 in 10.0 mi South 16.1 mph - N/A   Scattered Clouds
11:55 PM 60.4 °F 51.1 °F 71% 29.92 in 10.0 mi South 13.8 mph - N/A   Clear